NR0A-4 Weather Reports


Display with metric or nautical units.
time (UTC)temp
F
wind
direction
speed
MPH
gust
MPH
rain 1hr
in
rain 24hr
in
rain mn
in
humidity
%
barometer
mb
20180816043645 68 292 0.0 2.0 0.00 0.00 0.00 89 1015.8
20180816043144 68 325 1.0 2.0 0.00 0.00 0.00 89 1015.5
20180816042644 69 5 1.0 5.0 0.00 0.00 0.00 89 1015.3
20180816042144 69 358 3.0 6.0 0.00 0.00 0.00 89 1015.1
20180816041644 69 359 5.0 6.0 0.00 0.00 0.00 88 1014.9
20180816041144 69 19 3.0 5.0 0.00 0.00 0.00 88 1015.1
20180816040644 69 4 1.0 3.0 0.00 0.00 0.00 88 1015.2
20180816040142 69 9 1.0 3.0 0.00 0.00 0.00 88 1015.2
20180816035641 69 8 5.0 7.0 0.00 0.00 0.00 88 1014.9
20180816035140 69 9 3.0 7.0 0.00 0.00 0.00 88 1015.1
20180816034640 69 17 3.0 5.0 0.00 0.00 0.00 88 1015.1
20180816034143 69 22 3.0 7.0 0.00 0.00 0.00 89 1015.1
20180816033643 69 18 3.0 6.0 0.00 0.00 0.00 89 1015.2
20180816033143 70 20 3.0 6.0 0.00 0.00 0.00 89 1015.3
20180816032643 70 28 1.0 6.0 0.00 0.00 0.00 89 1015.4
20180816032143 70 347 2.0 3.0 0.00 0.00 0.00 89 1015.5
20180816031643 70 357 3.0 5.0 0.00 0.00 0.00 89 1015.5
20180816031142 70 355 2.0 1.0 0.00 0.00 0.00 89 1015.7
20180816030643 70 333 2.0 1.0 0.00 0.00 0.00 88 1015.6
20180816030143 71 264 1.0 2.0 0.00 0.00 0.00 88 1015.6
20180816025642 71 4 3.0 6.0 0.00 0.00 0.00 88 1015.3
20180816025143 71 263 0.0 5.0 0.00 0.00 0.00 87 1015.4
20180816024642 71 349 1.0 1.0 0.00 0.00 0.00 86 1015.4
20180816024142 72 315 1.0 2.0 0.00 0.00 0.00 86 1015.3
20180816023642 72 344 0.0 1.0 0.00 0.00 0.00 85 1015.2
20180816023142 72 334 2.0 5.0 0.00 0.00 0.00 85 1015.2
20180816022642 72 210 0.0 0.0 0.00 0.00 0.00 84 1015.1
20180816022142 73 335 0.0 0.0 0.00 0.00 0.00 83 1015.1
20180816021642 73 335 0.0 0.0 0.00 0.00 0.00 82 1014.9
20180816021142 73 338 0.0 1.0 0.00 0.00 0.00 81 1014.7
20180816020642 74 309 0.0 0.0 0.00 0.00 0.00 80 1014.6
20180816020142 74 250 1.0 1.0 0.00 0.00 0.00 78 1014.6
20180816015642 74 319 0.0 0.0 0.00 0.00 0.00 76 1014.5
20180816015142 74 14 1.0 1.0 0.00 0.00 0.00 76 1014.3
20180816014642 74 37 0.0 2.0 0.00 0.00 0.00 75 1014.2
20180816014142 75 27 1.0 2.0 0.00 0.00 0.00 75 1014.2
20180816013642 75 14 1.0 3.0 0.00 0.00 0.00 74 1014.2
20180816013142 75 18 1.0 5.0 0.00 0.00 0.00 74 1014.2
20180816012641 75 1 1.0 2.0 0.00 0.00 0.00 73 1014.3
20180816012141 75 10 0.0 0.0 0.00 0.00 0.00 73 1014.2
20180816011641 75 15 0.0 1.0 0.00 0.00 0.00 72 1014.1
20180816011140 76 18 2.0 2.0 0.00 0.00 0.00 72 1014.2
20180816010640 76 13 2.0 3.0 0.00 0.00 0.00 71 1014.2
20180816010140 76 19 1.0 3.0 0.00 0.00 0.00 70 1014.2
20180816005643 76 8 0.0 2.0 0.00 0.00 0.00 70 1014.2
20180816005143 76 4 0.0 0.0 0.00 0.00 0.00 70 1014.3
20180816004643 76 254 0.0 1.0 0.00 0.00 0.00 69 1014.0
20180816004143 76 331 2.0 3.0 0.00 0.00 0.00 68 1014.1
20180816003643 77 7 1.0 1.0 0.00 0.00 0.00 68 1014.0
20180816003142 77 23 2.0 2.0 0.00 0.00 0.00 68 1013.9
20180816002642 77 22 2.0 5.0 0.00 0.00 0.00 67 1013.9
20180816002142 77 16 3.0 3.0 0.00 0.00 0.00 65 1013.7
20180816001642 77 1 1.0 3.0 0.00 0.00 0.00 65 1013.7
20180816001142 77 24 2.0 6.0 0.00 0.00 0.00 64 1013.6
20180816000642 77 11 2.0 6.0 0.00 0.00 0.00 65 1013.6
20180816000142 77 32 0.0 6.0 0.00 0.00 0.00 65 1013.5
20180815235642 78 12 3.0 6.0 0.00 0.00 0.00 64 1013.4
20180815235142 78 16 3.0 7.0 0.00 0.00 0.00 65 1013.3
20180815234642 78 26 3.0 6.0 0.00 0.00 0.00 65 1013.2
20180815234142 78 47 2.0 6.0 0.00 0.00 0.00 65 1013.0
20180815233642 78 28 5.0 7.0 0.00 0.00 0.00 64 1013.0
20180815233142 78 17 3.0 7.0 0.00 0.00 0.00 64 1013.0
20180815232641 78 24 5.0 8.0 0.00 0.00 0.00 63 1012.9
20180815232142 78 26 1.0 6.0 0.00 0.00 0.00 64 1012.9
20180815231641 79 23 5.0 9.0 0.00 0.00 0.00 62 1013.0
20180815231140 79 39 1.0 2.0 0.00 0.00 0.00 62 1013.1
20180815230640 79 16 3.0 7.0 0.00 0.00 0.00 61 1013.3
20180815230140 79 22 3.0 7.0 0.00 0.00 0.00 60 1013.6
20180815225640 79 33 3.0 5.0 0.00 0.00 0.00 61 1013.6
20180815225140 80 346 5.0 14.0 0.00 0.00 0.00 60 1013.8
20180815224640 80 0 2.0 5.0 0.00 0.00 0.00 60 1014.1
20180815223640 80 337 2.0 2.0 0.00 0.00 0.00 59 1014.4
20180815223139 81 296 2.0 5.0 0.00 0.00 0.00 58 1014.4
20180815222640 80 218 1.0 5.0 0.00 0.00 0.00 59 1014.5
20180815222140 80 319 2.0 6.0 0.00 0.00 0.00 59 1014.5
20180815221640 80 7 3.0 8.0 0.00 0.00 0.00 58 1014.5
20180815221140 80 5 5.0 8.0 0.00 0.00 0.00 57 1014.5
20180815220640 81 343 3.0 7.0 0.00 0.00 0.00 58 1014.6
20180815220141 81 22 1.0 3.0 0.00 0.00 0.00 58 1014.5
20180815215640 81 285 1.0 1.0 0.00 0.00 0.00 58 1014.5
20180815215140 81 309 3.0 7.0 0.00 0.00 0.00 58 1014.5
20180815214640 81 14 1.0 3.0 0.00 0.00 0.00 60 1014.5
20180815214140 80 308 2.0 6.0 0.00 0.00 0.00 58 1014.4
20180815213640 80 66 1.0 3.0 0.00 0.01 0.00 60 1014.3
20180815213140 80 17 1.0 2.0 0.00 0.01 0.00 59 1014.4
20180815212640 80 13 3.0 5.0 0.00 0.01 0.00 57 1014.3
20180815212144 81 6 3.0 7.0 0.00 0.01 0.00 57 1014.3
20180815211644 81 24 1.0 5.0 0.00 0.01 0.00 57 1014.3
20180815211143 81 25 2.0 7.0 0.00 0.01 0.00 57 1014.3
20180815210643 81 202 1.0 3.0 0.00 0.01 0.00 56 1014.4
20180815210143 80 38 2.0 5.0 0.00 0.01 0.00 56 1014.4
20180815205643 80 23 2.0 3.0 0.00 0.01 0.00 57 1014.3
20180815205143 80 24 3.0 3.0 0.00 0.01 0.00 56 1014.2
20180815204643 81 22 3.0 6.0 0.00 0.01 0.00 55 1014.4
20180815204143 81 41 1.0 2.0 0.00 0.01 0.00 54 1014.3
20180815203643 82 79 0.0 0.0 0.00 0.01 0.00 53 1014.4
20180815203143 81 36 0.0 2.0 0.00 0.01 0.00 57 1014.3
20180815202643 80 14 1.0 1.0 0.00 0.01 0.00 56 1014.1
20180815202143 80 54 3.0 6.0 0.00 0.01 0.00 57 1014.1
20180815201643 80 58 3.0 8.0 0.00 0.01 0.00 57 1014.0
20180815201143 80 71 1.0 8.0 0.00 0.01 0.00 58 1014.0
20180815200643 79 38 2.0 5.0 0.00 0.01 0.00 58 1014.1
20180815200143 80 26 5.0 7.0 0.00 0.01 0.00 57 1014.0
20180815195643 79 51 2.0 3.0 0.00 0.01 0.00 58 1014.0
20180815195142 80 75 5.0 6.0 0.00 0.01 0.00 57 1014.1
20180815194643 80 88 3.0 7.0 0.00 0.01 0.00 57 1014.1
20180815194142 80 90 5.0 8.0 0.00 0.01 0.00 57 1014.0
20180815193642 80 91 2.0 3.0 0.00 0.01 0.00 58 1014.0
20180815193142 80 106 2.0 5.0 0.00 0.01 0.00 58 1014.0
20180815192642 79 52 5.0 8.0 0.00 0.01 0.00 58 1014.0
20180815192142 79 26 5.0 7.0 0.00 0.01 0.00 59 1014.0
20180815191642 80 36 2.0 5.0 0.00 0.01 0.00 60 1014.1
20180815191142 79 27 2.0 5.0 0.00 0.01 0.00 61 1014.1
20180815190642 79 24 3.0 7.0 0.00 0.01 0.00 60 1014.2
20180815190141 79 42 2.0 6.0 0.00 0.01 0.00 59 1014.3
20180815185640 79 74 6.0 7.0 0.00 0.01 0.00 60 1014.3
20180815185140 79 17 3.0 6.0 0.00 0.01 0.00 59 1014.4
20180815184644 78 66 3.0 7.0 0.00 0.01 0.00 60 1014.4
20180815184144 78 20 5.0 7.0 0.00 0.01 0.00 57 1014.4
20180815183644 79 39 5.0 5.0 0.00 0.01 0.00 60 1014.4
20180815183143 78 25 3.0 6.0 0.00 0.01 0.00 60 1014.5
20180815182643 78 37 5.0 7.0 0.00 0.01 0.00 60 1014.5
20180815182143 78 39 6.0 8.0 0.00 0.01 0.00 60 1014.5
20180815181643 78 67 3.0 5.0 0.00 0.01 0.00 62 1014.6
20180815181143 78 30 5.0 6.0 0.00 0.01 0.00 62 1014.6
20180815180643 78 86 5.0 8.0 0.00 0.01 0.00 62 1014.7
20180815180143 78 79 5.0 8.0 0.00 0.01 0.00 62 1014.7
20180815175643 77 18 5.0 5.0 0.00 0.01 0.00 62 1014.8
20180815175143 77 57 5.0 7.0 0.00 0.01 0.00 63 1014.8
20180815174642 77 18 7.0 9.0 0.00 0.01 0.00 62 1014.9
20180815174140 77 41 3.0 5.0 0.00 0.01 0.00 64 1014.9
20180815173640 76 93 2.0 7.0 0.00 0.01 0.00 65 1015.0
20180815173140 77 47 5.0 8.0 0.00 0.01 0.00 64 1015.1
20180815172640 76 59 5.0 6.0 0.00 0.01 0.00 65 1015.1
20180815172140 76 64 5.0 7.0 0.00 0.01 0.00 65 1015.2
20180815171639 77 18 5.0 8.0 0.00 0.01 0.00 64 1015.3
20180815171139 76 20 3.0 3.0 0.00 0.01 0.00 66 1015.4
20180815170639 76 69 3.0 6.0 0.00 0.01 0.00 64 1015.4
20180815170139 76 88 2.0 5.0 0.00 0.01 0.00 65 1015.5
20180815165639 76 13 1.0 6.0 0.00 0.01 0.00 66 1015.6
20180815165139 76 32 2.0 5.0 0.00 0.01 0.00 66 1015.6
20180815164639 76 68 3.0 6.0 0.00 0.01 0.00 65 1015.6
20180815164144 76 21 5.0 8.0 0.00 0.01 0.00 66 1015.6
20180815163644 76 45 3.0 5.0 0.00 0.01 0.00 67 1015.5
20180815163144 75 47 1.0 2.0 0.00 0.01 0.00 68 1015.5
20180815162644 75 52 2.0 6.0 0.00 0.01 0.00 70 1015.4
20180815162144 74 15 1.0 6.0 0.00 0.01 0.00 73 1015.4
20180815161644 74 11 3.0 5.0 0.00 0.01 0.00 70 1015.4
20180815161144 74 24 2.0 5.0 0.00 0.01 0.00 72 1015.5
20180815160644 74 21 3.0 3.0 0.00 0.01 0.00 71 1015.4
20180815160144 73 32 1.0 3.0 0.00 0.01 0.00 75 1015.4
20180815155644 73 56 2.0 2.0 0.00 0.01 0.00 75 1015.5
20180815155144 73 26 2.0 5.0 0.00 0.01 0.00 77 1015.4
20180815154644 73 45 1.0 1.0 0.00 0.01 0.00 78 1015.4
20180815154144 72 69 3.0 5.0 0.00 0.01 0.00 77 1015.4
20180815153644 72 74 3.0 7.0 0.00 0.01 0.00 77 1015.4
20180815153144 72 40 5.0 7.0 0.00 0.01 0.00 78 1015.4
20180815152643 72 91 5.0 7.0 0.00 0.01 0.00 79 1015.4
20180815152143 71 29 3.0 7.0 0.00 0.01 0.00 81 1015.4
20180815151643 70 56 3.0 5.0 0.00 0.01 0.00 84 1015.6
20180815145820 70 26 2.0 5.0 0.00 0.01 0.00 86 1015.7
20180815145319 70 38 3.0 6.0 0.00 0.01 0.00 86 1015.7
20180815144819 69 91 2.0 3.0 0.00 0.01 0.00 90 1015.7
20180815144319 69 32 2.0 2.0 0.00 0.01 0.00 90 1015.7
20180815143819 68 346 2.0 3.0 0.00 0.01 0.00 92 1015.8
20180815143319 68 11 2.0 5.0 0.00 0.01 0.00 93 1015.7
20180815142819 67 56 1.0 3.0 0.00 0.01 0.00 95 1015.7
20180815142319 66 305 2.0 3.0 0.00 0.01 0.00 96 1015.8
20180815141819 66 5 2.0 2.0 0.00 0.01 0.00 97 1015.7
20180815141319 65 320 0.0 1.0 0.00 0.01 0.00 98 1015.6
20180815140819 65 329 1.0 3.0 0.00 0.01 0.00 98 1015.6
20180815140317 64 9 2.0 2.0 0.00 0.01 0.00 98 1015.5
20180815135816 64 300 1.0 2.0 0.00 0.01 0.00 99 1015.4
20180815135316 64 18 2.0 6.0 0.00 0.01 0.00 99 1015.3
20180815134816 63 16 3.0 5.0 0.00 0.01 0.00 99 1015.3
20180815134316 63 353 2.0 5.0 0.00 0.01 0.00 99 1015.4
20180815133820 63 13 3.0 6.0 0.00 0.01 0.00 99 1015.3
20180815133320 63 20 5.0 6.0 0.00 0.01 0.00 99 1015.2
20180815132820 63 12 3.0 6.0 0.00 0.01 0.00 99 1015.1
20180815132320 63 345 1.0 3.0 0.00 0.01 0.00 99 1015.2
20180815131820 63 19 2.0 3.0 0.00 0.01 0.00 99 1015.1
20180815131320 63 17 2.0 5.0 0.00 0.01 0.00 99 1015.1
20180815130820 63 354 2.0 3.0 0.00 0.01 0.00 98 1015.2
20180815130320 63 345 2.0 5.0 0.00 0.01 0.00 99 1015.2
20180815125819 63 346 1.0 2.0 0.00 0.01 0.00 99 1015.2
20180815125319 62 331 1.0 6.0 0.00 0.01 0.00 99 1015.1
20180815124819 62 319 1.0 1.0 0.00 0.01 0.00 99 1015.1
20180815124319 62 324 2.0 5.0 0.00 0.01 0.00 99 1015.1
20180815123819 62 306 1.0 1.0 0.00 0.01 0.00 99 1015.2
20180815123319 62 301 2.0 3.0 0.00 0.01 0.00 99 1015.1
20180815122819 62 337 2.0 5.0 0.00 0.01 0.00 99 1015.1
20180815122319 62 281 1.0 3.0 0.00 0.01 0.00 99 1015.0
20180815121819 61 330 0.0 1.0 0.00 0.01 0.00 99 1015.0
20180815121319 61 301 0.0 3.0 0.00 0.01 0.00 99 1014.8
20180815120819 61 288 0.0 0.0 0.00 0.01 0.00 99 1014.9
20180815120319 61 288 0.0 0.0 0.00 0.01 0.00 99 1014.9
20180815115819 61 304 0.0 1.0 0.00 0.01 0.00 99 1014.9
20180815115319 61 0 0.0 1.0 0.00 0.01 0.00 99 1014.9
20180815114819 61 314 1.0 2.0 0.00 0.01 0.00 99 1014.8
20180815114319 61 305 0.0 0.0 0.00 0.01 0.00 99 1014.9
20180815113819 61 332 0.0 0.0 0.00 0.01 0.00 99 1014.8
20180815113319 61 295 0.0 1.0 0.00 0.01 0.00 99 1014.7
20180815112819 61 258 0.0 0.0 0.00 0.01 0.00 99 1014.7
20180815112319 61 258 0.0 0.0 0.00 0.01 0.00 99 1014.7
20180815111819 61 258 0.0 0.0 0.00 0.01 0.00 99 1014.6
20180815111319 61 258 0.0 0.0 0.00 0.01 0.00 98 1014.5
20180815110818 61 258 0.0 0.0 0.00 0.01 0.00 98 1014.5
20180815110319 61 258 0.0 0.0 0.00 0.01 0.00 98 1014.5
20180815105818 61 258 0.0 0.0 0.00 0.01 0.00 98 1014.4
20180815105318 61 206 0.0 0.0 0.00 0.01 0.00 98 1014.3
20180815104818 61 206 0.0 0.0 0.00 0.01 0.00 98 1014.4
20180815104318 61 206 0.0 0.0 0.00 0.01 0.00 98 1014.4
20180815103818 61 206 0.0 0.0 0.00 0.01 0.00 98 1014.4
20180815103318 61 206 0.0 0.0 0.00 0.01 0.00 98 1014.4
20180815102818 61 206 0.0 0.0 0.00 0.01 0.00 97 1014.5
20180815102318 61 313 0.0 0.0 0.00 0.01 0.00 97 1014.3
20180815101818 61 313 0.0 0.0 0.00 0.01 0.00 97 1014.2
20180815101318 61 313 0.0 0.0 0.00 0.01 0.00 97 1014.2
20180815100818 61 313 0.0 0.0 0.00 0.01 0.00 97 1014.2
20180815100318 61 313 0.0 0.0 0.00 0.01 0.00 97 1014.3
20180815095818 61 313 0.0 0.0 0.00 0.01 0.00 96 1014.3
20180815095318 62 313 0.0 0.0 0.00 0.01 0.00 96 1014.3
20180815094818 62 289 0.0 0.0 0.00 0.01 0.00 96 1014.5
20180815094318 62 342 0.0 0.0 0.00 0.01 0.00 96 1014.5
20180815093818 62 24 0.0 0.0 0.00 0.01 0.00 96 1014.5
20180815093318 62 261 0.0 0.0 0.00 0.01 0.00 96 1014.5
20180815092818 62 3 0.0 0.0 0.00 0.01 0.00 95 1014.5
20180815092318 62 8 1.0 2.0 0.00 0.01 0.00 95 1014.6
20180815091818 62 15 2.0 3.0 0.00 0.01 0.00 95 1014.4
20180815091318 62 0 2.0 2.0 0.00 0.01 0.00 94 1014.4
20180815090818 62 282 1.0 1.0 0.00 0.01 0.00 94 1014.5
20180815090318 62 264 1.0 2.0 0.00 0.01 0.00 94 1014.4
20180815085818 62 223 0.0 0.0 0.00 0.01 0.00 94 1014.4
20180815085318 63 330 1.0 2.0 0.00 0.01 0.00 93 1014.4
20180815084818 63 0 2.0 5.0 0.00 0.01 0.00 93 1014.4
20180815084318 63 340 1.0 5.0 0.00 0.01 0.00 93 1014.3
20180815083818 63 345 2.0 6.0 0.00 0.01 0.00 93 1014.4
20180815083318 63 336 2.0 5.0 0.00 0.01 0.00 93 1014.4
20180815082818 63 339 1.0 3.0 0.00 0.01 0.00 93 1014.4
20180815082318 63 342 2.0 5.0 0.00 0.01 0.00 94 1014.4
20180815081818 63 309 2.0 2.0 0.00 0.01 0.00 94 1014.5
20180815081318 63 313 1.0 3.0 0.00 0.01 0.00 94 1014.5
20180815080818 63 322 1.0 2.0 0.00 0.01 0.00 95 1014.6
20180815080318 63 322 2.0 5.0 0.00 0.01 0.00 95 1014.6
20180815075821 63 284 1.0 1.0 0.00 0.01 0.00 95 1014.5
20180815075320 63 302 2.0 3.0 0.00 0.01 0.00 96 1014.5
20180815074818 63 334 2.0 5.0 0.00 0.01 0.00 95 1014.5
20180815074318 63 294 1.0 1.0 0.00 0.01 0.00 95 1014.5
20180815073818 63 320 2.0 2.0 0.00 0.01 0.00 95 1014.4
20180815073318 63 323 3.0 5.0 0.00 0.01 0.00 95 1014.5
20180815072818 63 7 2.0 2.0 0.00 0.01 0.00 95 1014.5
20180815072318 63 330 2.0 5.0 0.00 0.01 0.00 95 1014.5
20180815071818 63 349 1.0 3.0 0.00 0.01 0.00 95 1014.5
20180815071318 63 356 2.0 5.0 0.00 0.01 0.00 95 1014.4
20180815070818 63 259 0.0 1.0 0.00 0.01 0.00 95 1014.5
20180815070318 63 347 0.0 0.0 0.00 0.01 0.00 95 1014.6
20180815065818 63 325 1.0 2.0 0.00 0.01 0.00 95 1014.6
20180815065318 63 346 0.0 1.0 0.00 0.01 0.00 95 1014.6
20180815064818 63 178 0.0 0.0 0.00 0.01 0.00 95 1014.6
20180815064318 63 178 0.0 0.0 0.00 0.01 0.00 94 1014.4
20180815063818 63 178 0.0 0.0 0.00 0.01 0.00 94 1014.4
20180815063316 63 325 0.0 0.0 0.00 0.01 0.00 94 1014.3
20180815062816 64 325 0.0 0.0 0.00 0.01 0.00 94 1014.2
20180815062320 64 336 0.0 0.0 0.00 0.01 0.00 94 1014.4
20180815061820 64 257 0.0 2.0 0.00 0.01 0.00 93 1014.4
20180815061319 64 0 0.0 0.0 0.00 0.01 0.00 93 1014.3
20180815060819 64 0 0.0 0.0 0.00 0.01 0.00 93 1014.3
20180815060319 64 0 0.0 0.0 0.00 0.01 0.00 93 1014.4
20180815055819 64 0 0.0 0.0 0.00 0.01 0.00 92 1014.3
20180815055319 64 0 0.0 0.0 0.00 0.01 0.00 92 1014.3
20180815054819 64 343 1.0 2.0 0.00 0.01 0.00 92 1014.3
20180815054319 64 324 1.0 3.0 0.00 0.01 0.00 92 1014.2
20180815053819 65 350 2.0 2.0 0.00 0.01 0.00 91 1014.2
20180815053319 65 357 1.0 2.0 0.00 0.01 0.00 91 1014.2
20180815052819 65 335 1.0 2.0 0.00 0.01 0.00 90 1014.2
20180815052319 65 351 2.0 5.0 0.00 0.01 0.00 90 1014.2
20180815051819 65 354 2.0 3.0 0.00 0.01 0.00 89 1014.1
20180815051319 65 8 2.0 3.0 0.00 0.01 0.00 89 1014.0
20180815050818 66 332 2.0 6.0 0.00 0.01 0.00 88 1014.0
20180815050318 66 329 2.0 6.0 0.00 0.01 0.00 88 1014.0
20180815045818 66 356 1.0 3.0 0.00 0.01 0.01 88 1014.0
20180815045318 66 341 2.0 3.0 0.00 0.01 0.01 87 1013.9
20180815044818 66 347 1.0 2.0 0.00 0.01 0.01 86 1013.8
20180815044318 66 2 1.0 2.0 0.00 0.01 0.01 86 1013.8